Location: Moscow
(55.7500°N, 37.5830°E)
Time: 11:06:39
(UTC+03:00)

Explorer 7 - Pass Details

Date: 08 December 2021
Orbit: 483 x 674 km, 50.3° (Epoch: 19 January)

Event Time Altitude Azimuth Distance (km) Brightness Sun altitude
Rises 10:13:16 0° 272° (W) 2,698 10.0 6.9°
Reaches altitude 10° 10:16:19 10° 249° (WSW) 1,763 9.4 7.1°
Maximum altitude 10:18:36 15° 214° (SW) 1,454 9.4 7.3°
Drops below altitude 10° 10:20:48 10° 179° (S) 1,709 10.7 7.4°
Sets 10:23:41 0° 155° (SSE) 2,563 12.9 7.6°
